Location: Bishop�s Knoyle
(51.0728°N, 2.1714°W)
Time: 10:43:41
(UTC+00:00)

ATLAS CENTAUR R/B - Pass Details

Date: 26 January 2021
Orbit: 471 x 674 km, 64.6° (Epoch: 24 February)

Event Time Altitude Azimuth Distance (km) Brightness Sun altitude
Exits shadow 04:28:58 12° 111° (ESE) 1,488 4.1 -31.9°
Drops below altitude 10° 04:30:26 10° 87° (E) 1,638 4.6 -31.7°
Sets 04:33:36 0° 57° (ENE) 2,528 5.6 -31.2°
